Location: Camaret
(48.2753°N, 4.5961°W)
Time: 01:06:29
(UTC+00:00)

ATLAS 5 CENTAUR R/B - Pass Details

Date: 29 October 2020
Orbit: 531 x 1127 km, 63.4° (Epoch: 22 November)

Event Time Altitude Azimuth Distance (km) Brightness Sun altitude
Rises 18:07:17 0° 288° (WNW) 2,859 6.2 -11.1°
Reaches altitude 10° 18:10:16 10° 311° (NW) 2,049 4.8 -11.6°
Maximum altitude 18:13:07 16° 350° (N) 1,785 4.0 -12.1°
Drops below altitude 10° 18:16:14 10° 27° (NNE) 2,265 4.1 -12.6°
Enters shadow 18:17:30 - 37° (NE) 2,610 4.4 -12.8°
